This is the latest recevied weather packets stored in our database for station/object K42C. If no packets are shown the sender has not sent any weather packets the latest 10 day(s).
| Time | Temp. | Humidity | Pressure | Rain* | Wind** | Luminosity | Snow |
|---|---|---|---|---|---|---|---|
| 1777905664 | 17.22° C | 59% | 963.7 hPa | 0 mm | 2.68 m/s, 173° | - | - |
| 1777905267 | 17.22° C | 61% | 963.8 hPa | 0 mm | 3.13 m/s, 225° | - | - |
| 1777904866 | 16.67° C | 63% | 964 hPa | 0 mm | 2.24 m/s, 194° | - | - |
| 1777904469 | 16.11° C | 64% | 964 hPa | 0 mm | 3.13 m/s, 173° | - | - |
| 1777904068 | 15.56° C | 68% | 964.2 hPa | 0 mm | 2.68 m/s, 236° | - | - |
| 1777903671 | 15.56° C | 70% | 964.4 hPa | 0 mm | 2.24 m/s, 210° | - | - |
| 1777903270 | 15° C | 72% | 964.4 hPa | 0 mm | 1.79 m/s, 179° | - | - |
| 1777902873 | 15° C | 72% | 964.7 hPa | 0 mm | 2.24 m/s, 195° | - | - |
| 1777902472 | 14.44° C | 73% | 964.7 hPa | 0 mm | 2.24 m/s, 212° | - | - |
| 1777902075 | 14.44° C | 75% | 964.7 hPa | 0 mm | 3.13 m/s, 169° | - | - |
| 1777901674 | 13.89° C | 76% | 964.9 hPa | 0 mm | 2.24 m/s, 153° | - | - |
| 1777901277 | 13.89° C | 77% | 964.9 hPa | 0 mm | 3.58 m/s, 173° | - | - |
| 1777900877 | 13.33° C | 78% | 965 hPa | 0 mm | 3.13 m/s, 184° | - | - |
| 1777900479 | 13.33° C | 81% | 965.2 hPa | 0 mm | 1.79 m/s, 228° | - | - |
| 1777900079 | 12.78° C | 82% | 965.2 hPa | 0 mm | 2.68 m/s, 179° | - | - |
| 1777899281 | 12.22° C | 86% | 965.5 hPa | 0 mm | 1.79 m/s, 203° | - | - |
| 1777898884 | 12.22° C | 87% | 965.5 hPa | 0 mm | 2.24 m/s, 226° | - | - |
| 1777898483 | 11.67° C | 90% | 965.5 hPa | 0 mm | 1.79 m/s, 170° | - | - |
| 1777897685 | 11.11° C | 92% | 965.7 hPa | 0 mm | 2.68 m/s, 173° | - | - |
| 1777897288 | 10.56° C | 94% | 965.7 hPa | 0 mm | 3.58 m/s, 208° | - | - |
| 1777896887 | 10.56° C | 95% | 965.7 hPa | 0 mm | 2.68 m/s, 186° | - | - |
| 1777895692 | 8.89° C | 100% | 965.8 hPa | 0 mm | 3.13 m/s, 163° | - | - |
| 1777895291 | 8.33° C | 100% | 965.9 hPa | 0 mm | 2.24 m/s, 170° | - | - |
| 1777894894 | 8.33° C | 100% | 966 hPa | 0 mm | 0 m/s | - | - |
| 1777894493 | 7.78° C | 100% | 966 hPa | 0 mm | 0 m/s | - | - |
* Rain latest hour (hover to see other rain measurements)
** Current wind speed in m/s (hover to see current wind gust speed)